Wind_Speed
26 27 27 27 27 27 26 25 26 26 25 26 26 26 27 27 27 29 29 29 26 28 27 22 14 11 3 5 11 17 8 11 23 20 18 8 8 6 5 5 8 8 8 6 7 7 5
26 27 27 27 28 28 28 28 28 28 28 27 28 29 29 30 31 31 32 31 31 28 25 24 14 12 6 12 13 21 25 18 21 25 15 14 10 9 4 8 7 5 11 6 6 6 5
26 27 27 27 27 28 28 27 28 28 29 29 30 30 32 33 33 34 36 36 37 30 30 19 14 13 6 22 6 10 21 27 26 27 7 21 18 5 3 5 8 4 4 5 6 5 6
25 26 26 27 28 29 29 30 31 30 31 31 32 33 33 35 36 37 39 39 35 29 28 17 13 12 9 15 26 30 23 17 20 20 22 9 18 5 6 3 5 3 1 5 4 12 5
26 25 26 27 27 28 28 28 28 30 32 33 34 35 38 39 41 41 43 43 39 27 16 11 11 9 8 7 18 35 34 13 18 17 18 4 5 6 3 5 3 4 5 7 7 11 6
24 25 26 27 27 28 28 28 28 29 30 31 33 34 37 41 46 47 51 43 31 15 7 9 9 0 7 8 10 19 34 24 5 6 4 6 5 4 3 6 14 9 6 6 8 6 7
26 26 27 29 27 29 29 28 29 30 30 31 33 36 38 39 47 52 43 17 4 1 9 13 15 7 4 12 10 11 31 17 7 5 10 6 7 15 22 26 21 9 9 6 4 7 8
26 27 28 28 30 30 29 29 31 32 32 33 35 36 36 38 47 46 22 7 12 15 12 15 25 21 13 4 4 6 30 12 10 14 5 4 19 26 15 10 12 9 13 15 7 4 13
26 27 29 29 30 31 31 31 32 33 34 34 35 36 37 39 40 10 32 10 27 32 7 13 22 24 20 14 14 13 23 11 21 16 17 19 7 17 16 15 16 19 20 18 14 4 3
28 29 30 31 32 32 32 32 32 33 34 36 39 38 40 42 20 27 19 17 32 27 7 12 7 11 16 16 17 16 29 23 8 26 19 17 20 18 17 25 21 22 16 18 13 6 6
30 32 32 32 33 34 35 35 34 34 35 36 41 44 39 39 26 7 27 31 29 3 6 8 5 6 5 14 3 24 36 11 23 14 12 15 12 22 16 23 22 19 8 15 7 5 3
32 33 33 35 36 36 35 36 35 35 36 36 39 44 43 32 23 23 22 29 14 1 7 6 3 4 2 11 3 4 21 10 4 9 13 17 6 15 26 6 21 9 7 6 5 4 7
33 34 35 36 38 39 39 39 38 37 38 37 37 44 44 26 8 28 26 7 3 4 7 11 11 16 23 8 13 4 12 20 15 12 20 12 5 4 6 6 2 7 11 1 1 1 9
33 34 35 38 39 40 41 41 39 38 37 36 36 42 36 32 11 14 7 2 5 7 10 18 22 16 10 20 18 10 7 12 21 7 1 17 7 14 5 9 9 16 15 7 11 6 5
33 36 38 39 39 39 39 40 39 39 39 35 33 32 25 20 15 12 4 3 4 5 9 15 21 14 13 10 11 12 17 17 17 26 11 9 13 1 9 6 13 6 13 9 4 1 4
35 36 38 39 38 40 40 40 40 39 36 33 25 22 12 13 23 8 3 5 4 15 8 6 6 6 19 14 8 10 8 11 14 23 16 5 3 3 1 5 2 9 9 2 1 5 5
35 36 37 37 38 39 39 41 39 37 37 31 14 4 11 11 22 3 1 1 10 13 15 7 6 6 12 17 9 9 8 19 16 15 23 23 3 2 4 9 17 4 5 5 5 5 5
33 34 35 36 38 40 42 45 39 35 35 20 5 3 7 23 3 1 1 2 9 10 11 5 6 8 11 18 6 8 11 14 27 19 20 19 16 7 8 2 5 10 8 11 5 5 4
33 34 34 36 38 40 41 43 37 34 32 24 3 4 12 4 1 2 3 2 4 10 9 5 5 8 9 9 10 17 15 24 30 17 6 16 5 5 1 3 2 7 10 10 2 2 6
33 33 33 35 37 38 39 40 38 36 34 21 3 3 4 2 2 4 0 3 5 5 3 3 7 5 8 10 7 12 14 13 26 18 28 12 6 10 5 2 5 6 10 16 16 5 9
32 32 32 34 35 37 38 36 36 35 37 13 2 2 3 4 4 1 2 3 8 4 3 3 4 4 5 4 16 3 13 19 19 10 16 7 4 14 5 6 3 3 8 17 17 24 9
30 31 32 33 36 37 37 36 33 32 33 6 4 4 2 3 9 7 5 3 7 7 1 6 3 15 10 10 11 20 17 17 7 10 13 9 2 4 10 10 4 4 7 8 17 18 12
31 32 32 33 35 38 38 38 33 29 26 7 9 4 3 7 3 2 3 4 6 8 4 6 12 10 11 9 14 17 18 24 19 19 14 5 1 3 6 11 8 5 12 9 5 6 11
31 32 32 34 37 38 38 37 35 32 24 18 19 6 3 8 6 4 7 4 8 9 7 10 7 11 8 13 16 20 18 18 17 17 13 9 9 1 1 7 7 7 11 21 19 14 16
31 32 32 34 36 38 39 36 34 33 29 23 18 5 2 4 5 7 10 6 6 7 6 9 14 5 11 11 9 9 4 1 2 3 12 14 7 4 3 4 4 2 4 9 8 14 10
31 33 33 35 38 40 40 37 33 33 30 20 21 12 4 4 4 7 8 6 5 4 5 5 8 9 6 2 2 3 4 5 4 8 6 5 13 6 2 3 4 3 6 5 3 6 8
32 33 34 37 40 41 40 39 33 34 30 23 13 13 6 4 4 3 3 4 2 1 4 4 6 8 3 2 2 3 3 7 5 7 6 4 5 12 6 1 1 13 25 3 6 7 14
34 35 38 41 43 43 41 39 35 35 29 25 15 7 5 3 6 5 4 3 4 2 4 3 5 4 4 4 4 4 3 2 3 4 3 5 6 5 5 3 3 18 10 6 9 15 12
34 37 40 43 45 45 42 37 38 35 30 24 9 12 12 5 7 18 18 25 16 12 7 2 3 3 3 2 3 2 3 3 2 3 3 1 4 3 2 3 3 4 5 7 11 11 14
Wind_Direction
27 25 22 19 18 16 12 8 4 2 357 355 352 348 346 346 343 337 333 330 325 320 319 304 275 259 288 227 238 254 281 201 189 186 181 177 187 184 218 222 235 234 237 224 231 185 202
25 23 21 19 16 13 11 7 4 2 359 355 350 347 343 341 337 332 327 324 320 315 310 303 267 227 159 250 261 249 243 193 189 190 193 181 195 197 232 241 186 232 236 249 251 213 206
21 19 18 15 13 11 8 4 2 360 356 351 348 345 342 338 333 329 325 322 314 307 307 289 250 213 210 229 241 240 209 202 197 194 174 203 217 145 138 273 284 214 242 298 229 205 232
17 15 12 10 7 4 3 1 359 356 353 350 345 341 338 335 331 327 322 318 308 298 297 274 221 201 245 243 245 240 220 213 214 206 210 214 225 196 177 270 334 287 192 251 251 179 222
12 9 7 3 1 360 357 355 354 354 351 348 345 342 339 335 329 326 323 316 303 293 275 221 177 201 252 247 225 233 209 194 197 204 211 187 155 184 165 156 340 235 244 231 298 193 145
7 5 2 1 359 356 354 354 352 351 349 347 343 340 339 335 331 328 326 319 304 279 213 170 241 162 271 223 205 206 202 194 165 149 166 178 167 182 175 152 215 204 215 229 215 204 174
4 3 3 358 359 356 353 351 349 346 344 342 339 338 338 338 331 327 331 332 354 284 245 196 191 202 300 209 175 190 181 157 132 158 187 216 170 200 198 200 211 176 204 213 255 197 160
1 360 356 358 354 352 350 347 344 342 338 337 335 334 333 335 330 330 342 314 8 321 281 262 259 236 240 153 196 217 165 164 172 198 164 183 220 212 206 206 214 211 231 251 272 212 181
359 357 355 354 351 349 348 344 342 341 341 338 333 332 332 334 334 349 333 276 347 342 260 264 232 241 222 224 219 201 174 182 189 189 199 210 221 215 193 188 199 224 222 231 236 190 274
357 355 352 350 348 348 344 343 342 337 334 333 328 329 331 333 331 321 300 328 327 343 257 268 253 250 220 213 233 191 190 174 205 207 196 229 243 198 196 208 191 218 209 224 224 153 219
356 353 351 347 344 342 339 336 333 332 332 332 327 326 328 330 301 290 296 318 323 336 252 264 228 284 225 180 145 197 182 196 199 171 169 213 183 212 215 211 197 218 171 195 192 203 162
356 351 347 346 344 342 339 337 334 331 327 329 326 324 326 328 315 293 309 312 318 213 261 266 327 329 166 214 237 45 180 206 232 206 218 210 175 192 216 175 201 142 93 57 57 113 236
352 350 348 343 341 340 339 337 335 332 330 330 327 321 323 317 277 310 311 309 318 212 311 279 299 355 342 315 224 144 161 202 203 197 224 222 204 168 150 125 113 138 136 60 318 236 235
349 347 342 341 340 338 336 333 331 329 328 329 326 319 320 312 328 353 27 335 236 273 279 339 342 330 319 309 290 211 164 187 216 232 323 216 235 176 186 178 172 189 185 173 198 187 212
345 344 341 338 338 336 335 333 330 328 329 331 328 320 314 312 329 336 67 276 260 315 352 334 333 339 333 321 357 322 204 210 207 201 190 182 232 145 177 145 153 211 213 193 70 48 98
345 342 341 340 339 340 339 337 333 330 328 330 327 312 285 330 335 0 79 261 296 354 324 310 311 351 305 310 303 310 319 237 215 208 201 206 213 346 78 94 102 180 164 152 136 187 227
345 342 342 342 344 344 342 339 333 332 333 328 309 300 281 305 329 42 224 133 326 326 337 324 337 297 327 346 300 277 260 306 230 206 200 215 180 281 138 197 191 142 184 198 176 169 180
343 342 343 345 345 343 343 345 342 338 337 347 280 254 268 316 14 279 28 277 305 325 327 338 308 335 4 320 280 274 258 214 358 300 197 208 203 191 208 273 211 216 210 188 188 227 208
343 345 345 346 345 345 345 351 350 348 346 342 297 271 296 163 238 268 303 315 291 315 324 350 313 0 348 356 320 335 5 329 345 330 231 185 200 165 136 347 352 205 209 212 203 75 198
345 345 345 346 346 346 348 352 356 357 353 345 297 301 306 26 245 143 85 314 302 287 263 255 285 322 340 311 314 293 339 323 310 309 299 317 137 202 167 228 139 193 201 212 208 223 222
343 343 343 344 342 344 345 347 350 351 352 340 186 256 259 284 282 264 113 227 288 297 263 297 306 310 310 310 313 295 313 318 319 5 339 335 168 155 184 24 332 230 217 222 207 224 196
340 340 340 342 341 341 343 345 345 351 352 348 327 331 299 289 272 291 299 241 270 283 289 291 282 305 311 292 287 298 312 307 282 289 335 326 312 157 201 137 40 336 307 211 222 240 248
337 338 338 339 337 338 341 344 346 346 358 338 319 253 247 265 250 225 237 229 277 322 299 285 290 308 309 317 302 288 281 277 263 274 303 278 266 140 215 155 129 243 230 251 198 190 212
336 336 337 336 336 336 338 342 344 347 344 336 327 276 258 283 216 223 264 295 295 297 291 300 312 315 289 313 312 291 266 256 253 253 235 273 321 293 170 117 219 250 190 210 218 218 210
334 334 334 333 333 335 335 335 338 340 341 334 332 301 281 289 250 265 272 284 296 295 292 299 296 237 312 320 313 311 310 43 304 187 207 210 245 254 199 177 337 266 242 199 181 246 216
334 332 332 330 330 333 332 332 334 336 337 333 333 309 274 290 246 261 291 261 270 282 319 252 306 304 315 294 305 300 329 312 341 349 34 233 217 277 216 150 167 317 290 161 149 267 210
332 330 329 330 330 331 331 331 331 335 336 337 317 313 256 272 266 237 267 246 250 332 268 314 312 326 348 319 309 311 338 329 358 336 350 321 311 236 250 161 351 342 328 322 141 329 326
331 330 328 329 330 330 329 329 330 329 329 330 306 321 268 276 281 257 296 289 288 209 243 287 341 347 345 17 331 3 326 307 353 306 356 356 333 334 261 215 264 1 359 33 322 324 329
330 328 330 330 329 329 328 328 327 325 325 325 292 302 311 254 267 284 273 268 256 262 263 220 243 339 280 32 360 345 328 310 288 296 326 29 334 320 55 288 240 314 73 7 349 332 336
Height
854 851 848 845 842 838 835 830 826 822 818 813 809 804 800 795 790 786 782 777 773 771 766 763 761 761 764 764 746 735 736 737 740 743 742 747 754 757 761 758 755 755 748 742 739 743 742
855 852 849 846 843 839 835 831 827 823 817 812 808 803 798 793 788 783 777 771 767 763 759 759 757 756 758 760 731 731 732 734 734 737 739 742 743 745 751 751 755 742 744 740 739 739 740
858 855 851 847 843 839 836 831 827 823 818 812 807 802 796 790 785 779 773 767 761 755 753 750 752 753 749 725 727 726 728 728 728 730 734 735 736 741 744 748 741 739 745 744 740 739 741
859 856 852 849 845 841 836 831 827 822 817 811 806 800 794 789 783 776 768 759 751 748 745 743 745 749 736 716 717 721 726 727 728 728 730 732 734 738 741 738 739 745 745 754 734 736 737
860 856 853 849 845 840 836 832 827 822 817 812 806 800 793 786 779 772 762 750 740 737 736 737 742 741 728 709 708 706 714 718 724 728 729 730 732 737 737 750 757 751 762 756 744 731 735
861 858 854 850 845 841 836 832 827 822 816 810 804 798 791 782 773 765 756 742 728 731 732 734 735 741 714 699 695 693 701 713 720 726 732 731 735 742 746 751 751 752 755 746 743 732 735
862 858 854 849 844 840 836 830 825 820 814 808 802 796 789 782 771 762 752 741 734 731 725 708 700 696 689 689 690 691 694 705 715 724 730 730 734 733 721 714 711 727 732 733 724 718 732
861 858 854 849 844 839 833 828 824 818 812 806 800 794 788 780 769 758 755 750 751 750 724 708 697 691 682 683 689 689 692 704 710 719 725 729 719 699 705 716 721 724 728 726 724 715 726
862 856 851 847 842 837 832 827 821 816 810 803 796 790 784 778 769 758 757 752 748 743 724 694 686 678 677 683 679 680 683 691 693 709 712 708 692 701 702 709 718 717 720 721 722 718 720
861 857 852 847 842 837 832 826 821 815 809 802 793 787 781 774 767 759 753 747 744 742 721 687 676 658 664 666 665 663 665 677 691 690 700 705 693 695 699 698 698 711 702 710 718 727 739
861 855 850 844 840 835 830 824 819 813 807 800 791 782 777 774 767 762 751 746 742 742 706 670 658 649 646 654 645 646 653 667 671 678 689 677 684 692 695 678 685 683 691 701 709 720 725
859 854 849 845 839 833 828 822 816 810 804 798 790 781 773 766 764 755 749 746 742 746 714 673 653 654 651 652 648 646 653 657 658 671 668 662 664 671 666 677 680 688 698 707 716 728 739
860 855 850 844 838 832 827 820 813 806 800 794 787 776 769 765 758 751 747 747 747 750 694 672 672 681 674 664 650 651 657 669 669 678 671 666 668 664 666 682 684 686 699 741 743 747 717
860 854 848 843 837 829 823 816 808 802 796 790 782 770 763 758 755 750 747 753 753 726 713 692 690 685 687 681 661 651 658 662 661 664 679 675 684 663 660 664 681 675 678 701 708 724 712
857 852 847 839 833 826 820 813 806 799 792 786 778 766 760 753 753 749 752 752 749 725 723 717 697 685 680 684 693 677 650 649 644 646 661 669 663 651 652 654 660 685 681 666 691 691 714
857 851 845 838 832 826 818 810 801 794 788 783 777 767 757 752 750 748 761 752 741 734 734 723 718 710 700 692 692 686 673 637 635 635 636 646 656 657 655 651 658 662 660 685 697 698 691
857 851 843 836 830 822 814 807 798 790 784 779 773 768 752 751 747 752 760 759 745 733 732 733 722 717 712 708 697 685 687 660 634 630 627 632 642 661 656 655 650 666 667 668 668 686 684
854 846 841 834 829 821 814 805 796 789 783 774 773 768 747 749 760 757 761 753 742 733 728 731 726 724 725 715 712 676 660 657 669 642 629 623 628 660 659 650 648 646 651 655 669 671 682
852 847 841 835 827 821 814 804 796 789 784 779 774 767 748 748 771 761 751 748 742 737 733 735 727 730 725 719 712 690 690 687 684 661 625 615 626 652 657 654 654 654 650 648 656 665 670
852 846 840 835 827 820 813 806 798 790 783 779 777 766 757 751 750 757 763 748 746 737 735 733 729 726 725 720 711 709 698 688 689 668 647 628 619 628 638 638 644 651 647 644 646 673 649
850 843 837 830 822 816 810 803 797 791 783 776 775 765 762 758 749 755 756 748 745 745 734 732 731 728 730 731 712 699 694 684 669 658 656 635 626 622 642 636 634 637 641 640 644 632 651
846 840 835 829 822 816 808 803 796 790 781 777 775 771 761 758 751 747 748 747 739 738 736 735 737 721 720 721 714 707 696 685 692 666 667 650 635 629 637 640 645 658 638 640 637 634 641
845 839 833 827 821 815 808 801 794 789 784 780 775 770 766 750 749 749 743 739 734 731 728 725 723 721 714 707 698 692 684 672 674 674 669 662 641 637 628 638 651 655 638 637 636 634 634
843 838 832 826 820 813 807 799 793 787 783 780 775 767 759 747 744 741 734 733 733 729 730 722 720 718 707 696 692 682 671 668 667 663 665 662 649 641 641 640 638 622 610 616 620 617 620
840 835 829 822 815 809 803 797 790 784 778 774 771 768 758 749 742 739 734 733 730 727 726 724 715 711 705 700 697 678 666 658 659 653 656 663 661 638 634 632 622 614 613 613 615 609 611
838 833 826 819 811 807 798 791 786 780 773 769 766 764 761 751 743 734 738 732 734 733 730 718 711 707 705 705 702 713 678 668 658 659 650 654 658 648 630 624 624 619 610 602 604 621 605
835 828 822 816 809 802 795 789 782 776 770 765 761 760 757 748 740 734 734 733 727 729 730 725 718 711 705 710 708 695 691 685 689 676 672 667 646 638 630 631 624 658 643 609 623 645 623
834 828 820 813 806 799 792 784 778 771 766 761 757 756 755 746 737 732 729 728 729 728 734 726 724 719 720 719 706 709 700 704 707 680 677 678 673 650 636 639 636 660 645 649 670 649 635
829 822 816 808 801 793 786 779 773 766 761 757 752 751 749 746 735 730 727 722 722 722 724 724 723 723 722 733 730 727 720 715 708 695 685 683 684 681 679 677 673 676 673 678 674 664 648